Regional Weather Roundup
Issued by NWS

Home | Current Version | Previous Version | Text Only | Print | Product List | Glossary On
Versions: 1 2 3 4 5 6 7 8 9 10 11 12 13 14 15 16 17 18 19 20 21 22 23 24 25 26 27 28 29 30 31 32 33 34 35 36 37 38 39 40 41 42 43 44 45 46 47 48 49 50
000
ASUS43 KOAX 271710
RWRNE

WEATHER ROUNDUP FOR NEBRASKA
NATIONAL WEATHER SERVICE OMAHA NE
1100 AM CST THU NOV 27 2014

NOTES: SATELLITE DATA IS BEING USED TO AUGMENT CLOUD COVER ABOVE
       12000 FEET.
       "FAIR" INDICATES FEW OR NO CLOUDS BELOW 12,000 FEET WITH NO
       SIGNIFICANT WEATHER AND/OR OBSTRUCTIONS TO VISIBILITY.

  * THESE STATIONS DO NOT REPORT WEATHER SUCH AS RAIN...SNOW OR FOG.

NEZ001>004-019>022-054>056-271800-
NEBRASKA PANHANDLE

CITY           SKY/WX    TMP DP  RH WIND       PRES   REMARKS
SCOTTSBLUFF    CLOUDY    24  22  91 S3        30.13F
ALLIANCE       PTSUNNY   36  31  82 S6        30.10F WCI  31
CHADRON        PTSUNNY  N/A N/A N/A SW5       30.08F
KIMBALL        PTSUNNY   42  29  60 SW7       30.13F
SIDNEY         MOSUNNY   43  30  60 SW6       30.15F
$$

NEZ057>060-069>072-079>082-271800-
SOUTHWEST NEBRASKA

CITY           SKY/WX    TMP DP  RH WIND       PRES   REMARKS
NORTH PLATTE   MOSUNNY   33  20  58 S10       30.23F WCI  25
IMPERIAL       SUNNY     34  26  72 S6        30.21F WCI  29
LEXINGTON      MOSUNNY   32  21  64 S15G25    30.28F WCI  22
MCCOOK         SUNNY     38  21  50 S10       30.26F WCI  31
OGALLALA       MOSUNNY   29  29  99 S3        30.19F
$$

NEZ005>010-023>029-035>040-094-271800-
NORTH CENTRAL NEBRASKA

CITY           SKY/WX    TMP DP  RH WIND       PRES   REMARKS
VALENTINE      CLOUDY    28  19  69 S14       30.18F WCI  17
AINSWORTH      CLOUDY    27  18  68 S16       30.21F WCI  15
BROKEN BOW     MOSUNNY   30  18  60 S20G25    30.27F WCI  17
O`NEILL        PTSUNNY   22  13  66 SE14      30.33F WCI  10
ORD            MOSUNNY   26  13  57 SE17G23   30.33F WCI  13
THEDFORD       PTSUNNY   31  21  65 S16       30.20F WCI  20
$$

NEZ041-046>049-061>064-073>077-083>087-271800-
SOUTH CENTRAL NEBRASKA

CITY           SKY/WX    TMP DP  RH WIND       PRES   REMARKS
GRAND ISLAND   MOSUNNY   27  11  51 S15       30.39F WCI  15
AURORA         SUNNY     26  12  55 S13       30.39F WCI  15
HASTINGS       SUNNY     27  12  53 S14       30.37F WCI  16
HEBRON         SUNNY     27  12  52 S9        30.45F WCI  18
HOLDREGE       SUNNY     30  18  61 S22G28    30.31F WCI  17
KEARNEY *      SUNNY     30  18  59 SE23      30.33F WCI  17
YORK           MOSUNNY   25  12  58 SE12      30.43F WCI  14
$$

NEZ011>018-030>034-042>045-271800-
NORTHEAST NEBRASKA

CITY           SKY/WX    TMP DP  RH WIND       PRES   REMARKS
NORFOLK        CLOUDY    19  11  70 SE13      30.42F WCI   6
ALBION         MOSUNNY   24  11  57 SE13      30.39F WCI  13
BLAIR          CLOUDY    17   6  60 E5        30.50S WCI  10
COLUMBUS *     MOSUNNY   21  10  63 SE10      30.47F WCI  10
FREMONT        CLOUDY    18   6  60 SE5       30.53R WCI  11
TEKAMAH        CLOUDY    14  -1  51 VRB3      30.54F
WAYNE          CLOUDY    15   8  74 SE9       30.48F WCI   3
$$

NEZ050>053-065>068-078-088>093-271800-
SOUTHEAST NEBRASKA

CITY           SKY/WX    TMP DP  RH WIND       PRES   REMARKS
LINCOLN        MOSUNNY   23  11  60 S7        30.51F WCI  15
OMAHA EPPLEY   CLOUDY    17   2  51 SE3       30.55F
BEATRICE       SUNNY     24  15  66 S9        30.48F WCI  15
FALLS CITY     CLOUDY    24   9  52 NE5       30.52F WCI  18
NEBRASKA CITY  CLOUDY    20   9  61 E3        30.52F
PLATTSMOUTH    CLOUDY    19  10  67 E3        30.52F
$$

NEZ044-045-051>053-067-271800-
OMAHA AREA

CITY           SKY/WX    TMP DP  RH WIND       PRES   REMARKS
OMAHA EPPLEY   CLOUDY    17   2  51 SE3       30.55F
BLAIR          CLOUDY    17   6  60 E5        30.50S WCI  10
FREMONT        CLOUDY    18   6  60 SE5       30.53R WCI  11
MILLARD        CLOUDY    20  12  69 CALM      30.53S
OFFUTT AFB     PTSUNNY   19   7  60 NE2       30.53F
PLATTSMOUTH    CLOUDY    19  10  67 E3        30.52F
WAHOO          CLOUDY    20  13  74 E3        30.51F
$$


USA.gov is the U.S. government's official web portal to all federal, state and local government web resources and services.